Location: Brabourne
(51.1333°N, 1.0000°E)
Time: 17:06:27
(UTC+00:00)

Cosmos 468 Rocket - Visible Passes

Search period start: 21 October 2021 00:00
Search period end: 31 October 2021 00:00
Orbit: 745 x 779 km, 74.0° (Epoch: 21 October)

Date Brightness Start Highest point End Pass type
(mag) Time Alt. Az. Time Alt. Az. Time Alt. Az.
21 Oct 6.3 02:28:59 17° NNE 02:28:59 17° NNE 02:30:14 10° NNE visible
21 Oct 6.1 04:09:08 13° NNW 04:09:08 13° NNW 04:10:48 10° N visible
22 Oct 6.8 01:50:55 13° NNE 01:50:55 13° NNE 01:51:23 10° NNE visible
22 Oct 6.1 03:31:04 15° NNW 03:31:04 15° NNW 03:32:31 10° N visible
23 Oct 6.4 02:52:58 14° N 02:52:58 14° N 02:53:59 10° N visible
24 Oct 6.7 02:14:52 12° NNE 02:14:52 12° NNE 02:15:18 10° NNE visible
25 Oct 6.5 03:16:53 11° N 03:16:53 11° N 03:17:17 10° N visible
26 Oct 6.7 02:38:46 10° N 02:38:46 10° N 02:38:54 10° N visible
